Flag for Romania Weather past 2 weeks in Sibiu, Romania

Now
73 °F

Scattered clouds.


Feels Like: 76 °F
Forecast: 61 / 77 °F
Wind: 7 mph from North

Location: Sibiu Airport

Current Time: Jul 24, 2014 at 1:45:31 PM

Latest Report: Jul 24, 2014 at 1:00 PM


Visibility: N/A

Pressure: 29.86 "Hg

Humidity: 61%

Dew point: 59 °F

Location of SibiuLocation

Historic Weather in Sibiu — Graph

°F

Sibiu temperature yesterday

Maximum temperature yesterday: 75 °F (at 12:00 PM)
Minimum temperature yesterday: 63 °F (at 3:00 AM)
Average temperature yesterday: 67 °F

Past Weeks' High & Low Weather Summary

 TemperatureHumidityPressure
High86 °F (Jul 20, 5:00 PM)100% (Jul 10, 12:00 AM)30.07 "Hg (Jul 10, 12:00 AM)
Low54 °F (Jul 10, 5:30 AM)27% (Jul 21, 3:30 PM)29.62 "Hg (Jul 11, 5:00 AM)
Average68 °F74%29.90 "Hg
* Reported Jul 9 4:00 PM — Jul 24 12:30 PM, Sibiu, Weather by CustomWeather, © 2014

Note: Actual official high and low records may vary slightly from our data, if they occured in-between our weather recording intervals... More about our weather records

Advertising

Sibiu weather history for previous 24 hours

 ConditionsComfort  
Time TempWeatherWind HumidityBarometerVisibility
12:30 PM
Jul 24
73 °FScattered clouds.9 mph61%29.86 "HgN/A
12:00 PM73 °FScattered clouds.7 mph61%29.86 "HgN/A
11:30 AM73 °FScattered clouds.5 mph61%29.86 "HgN/A
11:00 AM73 °FScattered clouds.5 mph65%29.86 "HgN/A
10:30 AM70 °FPassing clouds.5 mph69%29.86 "HgN/A
10:00 AM70 °FPassing clouds.5 mph69%29.86 "HgN/A
9:30 AM70 °FSunny.2 mph64%29.83 "Hg10 mi
8:30 AM64 °FSunny.2 mph83%29.83 "Hg10 mi
8:00 AM63 °FSunny.5 mph88%29.83 "Hg10 mi
7:30 AM61 °FPassing clouds.5 mph88%29.83 "HgN/A
7:00 AM59 °FPassing clouds.2 mph94%29.83 "HgN/A
6:30 AM55 °FClear.2 mph100%29.83 "Hg10 mi
6:00 AM55 °FClear.2 mph100%29.83 "Hg10 mi
5:30 AM57 °FPassing clouds.5 mph94%29.83 "HgN/A
5:00 AM55 °FClear.2 mph100%29.83 "Hg10 mi
4:00 AM57 °FClear.2 mph100%29.83 "Hg10 mi
3:00 AM59 °FClear.No wind94%29.83 "Hg10 mi
2:00 AM57 °FClear.2 mph100%29.83 "Hg10 mi
1:00 AM59 °FClear.No wind100%29.83 "Hg10 mi
12:00 AM61 °FClear.No wind100%29.83 "Hg10 mi
11:00 PM
Jul 23
63 °FClear.5 mph94%29.83 "Hg10 mi
10:00 PM64 °FScattered clouds.No wind88%29.80 "HgN/A
9:00 PM66 °FPassing clouds.5 mph88%29.80 "HgN/A
8:30 PM66 °FPassing clouds.2 mph88%29.80 "HgN/A
8:00 PM68 °FPassing clouds.5 mph88%29.80 "HgN/A
7:30 PM68 °FScattered clouds.2 mph83%29.80 "HgN/A
7:00 PM68 °FScattered clouds.2 mph83%29.80 "HgN/A
6:30 PM70 °FPartly sunny.No wind69%29.80 "HgN/A
6:00 PM70 °FScattered clouds.5 mph73%29.80 "HgN/A
5:30 PM70 °FBroken clouds.2 mph83%29.80 "HgN/A
5:00 PM68 °FPartly sunny.7 mph83%29.77 "HgN/A
4:30 PM66 °FSprinkles. Partly sunny.9 mph88%29.77 "HgN/A
4:00 PM70 °FSprinkles. Scattered clouds.9 mph73%29.77 "HgN/A
1:00 PM75 °FScattered clouds.7 mph65%29.77 "HgN/A
Weather by CustomWeather, © 2014

See weather overviewHow to use our weather pages